This is the latest recevied weather packets stored in our database for station/object KB3KAV. If no packets are shown the sender has not sent any weather packets the latest 10 day(s).
| Time | Temp. | Humidity | Pressure | Rain* | Wind** | Luminosity | Snow |
|---|---|---|---|---|---|---|---|
| 1777621867 | 1.67° C | 95% | 1042.1 hPa | 0 mm | - | 0 W/m² | - |
| 1777621266 | 1.67° C | 94% | 1042.1 hPa | 0 mm | - | 0 W/m² | - |
| 1777620664 | 1.67° C | 94% | 1042.1 hPa | 0 mm | - | 0 W/m² | - |
| 1777620063 | 1.67° C | 94% | 1041.9 hPa | 0 mm | - | 0 W/m² | - |
| 1777619460 | 1.67° C | 94% | 1042 hPa | 0 mm | - | 0 W/m² | - |
| 1777618856 | 2.22° C | 94% | 1041.9 hPa | 0 mm | - | 0 W/m² | - |
| 1777618253 | 2.22° C | 93% | 1042.1 hPa | 0 mm | - | 0 W/m² | - |
| 1777617651 | 2.78° C | 93% | 1042.1 hPa | 0 mm | - | 0 W/m² | - |
| 1777617051 | 2.78° C | 93% | 1042.2 hPa | 0 mm | - | 0 W/m² | - |
| 1777616452 | 2.78° C | 92% | 1041.9 hPa | 0 mm | - | 0 W/m² | - |
| 1777615852 | 3.33° C | 92% | 1042.2 hPa | 0 mm | - | 0 W/m² | - |
| 1777615250 | 3.33° C | 92% | 1042 hPa | 0 mm | - | 0 W/m² | - |
| 1777614647 | 3.89° C | 91% | 1041.9 hPa | 0 mm | - | 0 W/m² | - |
| 1777614044 | 3.89° C | 91% | 1041.9 hPa | 0 mm | - | 0 W/m² | - |
| 1777613443 | 4.44° C | 90% | 1042 hPa | 0 mm | - | 0 W/m² | - |
| 1777612841 | 5° C | 90% | 1042 hPa | 0 mm | - | 0 W/m² | - |
| 1777612239 | 5° C | 89% | 1041.9 hPa | 0 mm | - | 0 W/m² | - |
| 1777611636 | 5.56° C | 88% | 1041.8 hPa | 0 mm | - | 0 W/m² | - |
| 1777611036 | 6.11° C | 88% | 1041.9 hPa | 0 mm | - | 0 W/m² | - |
| 1777610436 | 6.11° C | 88% | 1041.8 hPa | 0 mm | - | 0 W/m² | - |
| 1777609835 | 6.11° C | 87% | 1041.6 hPa | 0 mm | - | 0 W/m² | - |
| 1777609235 | 6.67° C | 86% | 1041.5 hPa | 0 mm | - | 0 W/m² | - |
| 1777608635 | 6.67° C | 85% | 1041.6 hPa | 0 mm | - | 0 W/m² | - |
| 1777608030 | 6.67° C | 84% | 1041.4 hPa | 0 mm | - | 0 W/m² | - |
| 1777607428 | 7.22° C | 82% | 1041.3 hPa | 0 mm | - | 0 W/m² | - |
* Rain latest hour (hover to see other rain measurements)
** Current wind speed in m/s (hover to see current wind gust speed)